This is the latest recevied weather packets stored in our database for station/object SP6PWT-13. If no packets are shown the sender has not sent any weather packets the latest 10 day(s).
| Time | Temp. | Humidity | Pressure | Rain* | Wind** | Luminosity | Snow |
|---|---|---|---|---|---|---|---|
| 1777829031 | 25° C | 27% | 996.7 hPa | 0 mm | - | 31 W/m² | - |
| 1777828730 | 25° C | 27% | 996.7 hPa | 0 mm | - | 37 W/m² | - |
| 1777828429 | 25.56° C | 27% | 996.7 hPa | 0 mm | - | 37 W/m² | - |
| 1777827828 | 25.56° C | 27% | 996.6 hPa | 0 mm | - | 50 W/m² | - |
| 1777827528 | 25.56° C | 27% | 996.6 hPa | 0 mm | - | 41 W/m² | - |
| 1777827228 | 25.56° C | 26% | 996.5 hPa | 0 mm | - | 64 W/m² | - |
| 1777826926 | 25.56° C | 26% | 996.6 hPa | 0 mm | - | 66 W/m² | - |
| 1777826626 | 25.56° C | 26% | 996.6 hPa | 0 mm | - | 78 W/m² | - |
| 1777826325 | 25.56° C | 25% | 996.7 hPa | 0 mm | - | 84 W/m² | - |
| 1777826025 | 25.56° C | 25% | 996.8 hPa | 0 mm | - | 90 W/m² | - |
| 1777825724 | 26.11° C | 25% | 996.8 hPa | 0 mm | - | 104 W/m² | - |
| 1777825424 | 26.11° C | 25% | 996.9 hPa | 0 mm | - | 113 W/m² | - |
| 1777825124 | 26.11° C | 24% | 996.8 hPa | 0 mm | - | 123 W/m² | - |
| 1777824824 | 26.11° C | 25% | 996.7 hPa | 0 mm | - | 134 W/m² | - |
| 1777824523 | 26.11° C | 25% | 996.8 hPa | 0 mm | - | 144 W/m² | - |
| 1777824223 | 26.11° C | 24% | 996.8 hPa | 0 mm | - | 153 W/m² | - |
| 1777823922 | 26.11° C | 25% | 996.8 hPa | 0 mm | - | 162 W/m² | - |
| 1777823621 | 26.11° C | 25% | 996.9 hPa | 0 mm | - | 164 W/m² | - |
| 1777823321 | 26.11° C | 25% | 996.9 hPa | 0 mm | - | 185 W/m² | - |
| 1777823021 | 26.11° C | 25% | 996.9 hPa | 0 mm | - | 190 W/m² | - |
| 1777822720 | 26.11° C | 25% | 997 hPa | 0 mm | - | 199 W/m² | - |
| 1777822420 | 26.11° C | 25% | 997 hPa | 0 mm | - | 200 W/m² | - |
| 1777822119 | 26.11° C | 25% | 997.1 hPa | 0 mm | - | 231 W/m² | - |
| 1777821819 | 26.11° C | 25% | 997 hPa | 0 mm | - | 243 W/m² | - |
| 1777821519 | 26.11° C | 25% | 997.2 hPa | 0 mm | - | 259 W/m² | - |
* Rain latest hour (hover to see other rain measurements)
** Current wind speed in m/s (hover to see current wind gust speed)